Regional Weather Roundup
Issued by NWS

Home | Current Version | Previous Version | Graphics & Text | Print | Product List | Glossary On
Versions: 1 2 3 4 5 6 7 8 9 10 11 12 13 14 15 16 17 18 19 20 21 22 23 24 25 26 27 28 29 30 31 32 33 34 35 36 37 38 39 40 41 42 43 44 45 46 47 48 49 50
000
ASUS43 KDTX 190410
RWRMI
MICHIGAN HOURLY REGIONAL WEATHER ROUNDUP
NATIONAL WEATHER SERVICE DETROIT/PONTIAC MI
1200 AM EDT THU OCT 19 2017

NOTE: "FAIR" INDICATES FEW OR NO CLOUDS BELOW 12,000 FEET WITH NO
SIGNIFICANT WEATHER AND/OR OBSTRUCTION TO VISIBILITY.

MIZ047>049-052>055-059>063-066>070-074>076-081>083-190500-
SOUTHEAST LOWER MICHIGAN

CITY           SKY/WX    TMP DP  RH WIND       PRES   REMARKS
ADRIAN         CLEAR     52  41  66 SW8       30.12F
ALMA           CLEAR     55  39  56 S10G17    30.03F
ANN ARBOR      CLEAR     49  41  74 S6        30.10F
BAD AXE        CLEAR     55  39  55 SW8       30.04S
CARO           CLOUDY    59  38  46 S14       30.03F
DETROIT CITY   CLEAR     60  41  49 SW13      30.10S
DETROIT        CLEAR     54  42  64 S8        30.12S
FLINT          CLEAR     58  40  51 SW9       30.07S
GROSSE ILE     CLEAR     60  42  52 SW9G16    30.11S
HILLSDALE      CLEAR     54  39  58 S9        30.11S
HOWELL         CLEAR     55  40  58 SW7       30.08S

CITY           SKY/WX    TMP DP  RH WIND       PRES   REMARKS
JACKSON        CLEAR     58  41  53 S13       30.10S
LAMBERTVILLE   CLEAR     58  41  53 S6        30.13S
LANSING        CLEAR     57  39  51 SW13      30.07S
LAPEER         FAIR      57  40  52 SW9       30.07S
MASON          CLEAR     58  41  52 SW8       30.09R
MONROE         CLEAR     58  40  50 SW7       30.12S
MT. CLEMENS    CLEAR     60  42  52 SW13      30.08R
PONTIAC        CLEAR     57  42  57 SW9       30.08F
PORT HOPE        N/A     59  40  49 SW12G18   29.99F
PORT HURON     CLEAR     54  46  76 SW3       30.09S
TRI CITIES     CLEAR     58  41  53 S13       30.02F
MIDLAND        FAIR      57  40  53 S10       30.00F
TROY           CLEAR     58  40  50 SW7       30.12S
SAGINAW HB     CLEAR     57  41  54 S15       30.02F
$$
MIZ043>046-050>051-056>058-064>065-071>073-077>080-190500-
SOUTHWEST LOWER MICHIGAN

CITY           SKY/WX    TMP DP  RH WIND       PRES   REMARKS
BATTLE CREEK   CLEAR     55  43  63 SW10      30.09S
BENTON HARBOR  CLEAR     59  42  53 S8        30.07S
BIG RAPIDS     PTCLDY    58  39  50 SW10G16   29.98F
COLDWATER      CLEAR     56  40  55 SW6       30.11S
FREMONT        FAIR      60  46  59 SW18G24   30.00S
HOLLAND        CLEAR     62  43  49 SW17G28   30.05S
GRAND RAPIDS   CLOUDY    58  43  57 SW12      30.05S
IONIA          FAIR      56  41  57 S12       30.04F
KALAMAZOO      CLEAR     53  42  66 S10       30.09S
LUDINGTON      CLEAR     62  50  65 SW17G26   29.94F
MARSHALL       CLEAR     55  40  57 SW5       30.10R
MOUNT PLEASANT CLOUDY    60  39  45 SW13      29.99F
MUSKEGON       CLEAR     62  51  67 S16G22    30.02S
SOUTH HAVEN    CLEAR     61  43  51 SW10G16   30.06S
$$
MIZ016>042-190500-
NORTHERN LOWER MICHIGAN

CITY           SKY/WX    TMP DP  RH WIND       PRES   REMARKS
ALPENA         CLOUDY    61  40  45 SW15G22   29.89F
BEAVER ISLAND  CLEAR     64  49  60 SW22G33   29.80S
BELLAIRE       CLEAR     63  41  45 S9G18     29.88S
CADILLAC       PTCLDY    59  40  50 SW15G22   29.94F
CHARLEVOIX     CLEAR     62  45  52 SW17G29   29.87S
FRANKFORT      CLEAR     64  52  63 S17G26    29.89S
GAYLORD        CLOUDY    58  38  47 SW18      29.89F
GRAYLING       PTCLDY    57  38  49 SW9G17    29.93F
HARBOR SPRINGS CLEAR     62  42  48 SW17G25   29.83S
HOUGHTON LAKE  CLOUDY    57  40  52 SW10      29.95F
MANISTEE       CLEAR     64  47  53 SW10G21   29.92F
OSCODA         CLEAR     58  38  47 SW14G26   29.95F
PELLSTON       CLEAR     63  43  48 SW20G31   29.83S
ROGERS CITY    CLOUDY    61  40  46 SW18G26   29.85S
TRAVERSE CITY  CLEAR     62  43  49 SW10G20   29.86F
$$
MIZ007>008-015-190500-
EASTERN UPPER MICHIGAN

CITY           SKY/WX    TMP DP  RH WIND       PRES   REMARKS
KINROSS        PTCLDY    61  46  57 SW12G25   29.78F
MACKINAC ISLAN CLEAR     63  42  45 SW16G30   29.80F
NEWBERRY       CLOUDY    60  50  71 SW18G26   29.76S
S. S. MARIE    CLEAR     61  46  57 SW20G30   29.75F
MUNISING         N/A     59  51  75 SW7       29.76R
$$
MIZ004>006-011>014-085-190500-
CENTRAL UPPER MICHIGAN

CITY           SKY/WX    TMP DP  RH WIND       PRES   REMARKS
MANISTIQUE     PTCLDY    57  51  79 SW10G17   29.78S
ESCANABA       CLEAR     59  48  67 SW8       29.79R
MENOMINEE      CLEAR     63  47  55 W8G17     29.83R
SAWYER-GWINN   CLEAR     58  45  62 W7        29.79R
$$
MIZ001>003-009>011-084-190500-
WESTERN UPPER MICHIGAN

CITY           SKY/WX    TMP DP  RH WIND       PRES   REMARKS
IRON MOUNTAIN  CLEAR     61  42  49 W12       29.80R
HOUGHTON       LGT RAIN  54  32  43 W18G28    29.75R
COPPER HARBOR    N/A     57  34  41 NW13G29   29.72R
IRONWOOD       CLEAR     50  22  33 W12       29.86R
$$

ABBREVIATIONS USED IN REMARKS
   TC - TEMPERATURE IN CELSIUS
  WCI - WIND CHILL INDEX
   HX - HEAT INDEX
  VSB - VISIBILITY





USA.gov is the U.S. government's official web portal to all federal, state and local government web resources and services.